Location: Newark
(47.8167°N, 6.1833°E)
Time: 19:37:39
(UTC+00:00)

N. Korean satellite - Pass Details

Date: 28 September 2020
Orbit: 452 x 505 km, 97.2° (Epoch: 28 October)

Event Time Altitude Azimuth Distance (km) Brightness Sun altitude
Rises 03:59:42 0° 33° (NNE) 2,587 11.0 -15.9°
Reaches altitude 10° 04:03:03 10° 66° (ENE) 1,683 10.6 -15.4°
Maximum altitude 04:04:24 12° 88° (E) 1,569 10.4 -15.2°
Drops below altitude 10° 04:05:45 10° 110° (ESE) 1,666 10.1 -15.0°
Sets 04:09:01 0° 144° (SE) 2,522 10.5 -14.4°
